Morrisville, VT

9:31 PM EDT on April 26, 2017 (GMT -0400)
Morrisville Stowe State

Weather History for KMVL - August, 2014

Change the Weather History Date:

Wednesday, August 20, 2014

  Actual Average Record
Temperature  
Mean Temperature 65 °F 65 °F  
Max Temperature 82 °F 77 °F 87 °F (2015)
Min Temperature 47 °F 53 °F 39 °F (2007)
Degree Days  
Heating Degree Days 0 2  
Month to date heating degree days 31 35  
Since 1 June heating degree days 132 188  
Since 1 July heating degree days 60 65  
Cooling Degree Days 0 2  
Month to date cooling degree days 34 56  
Year to date cooling degree days 188 224  
Since 1 June cooling degree days 183 216  
Growing Degree Days 14 (Base 50)    
Moisture  
Dew Point 52 °F    
Average Humidity 73    
Maximum Humidity 100    
Minimum Humidity 45    
Precipitation  
Precipitation 0.00 in 0.14 in 2.05 in (2006)
Month to date precipitation 2.13 2.78  
Year to date precipitation 25.78 22.51  
Sea Level Pressure  
Sea Level Pressure 30.02 in    
Wind  
Wind Speed 1 mph (South)    
Max Wind Speed 7 mph    
Max Gust Speed 10 mph    
Visibility 5 miles    
Events Fog    
T = Trace of Precipitation, MM = Missing Value Source: NWS Daily Summary

Daily Weather History Graph

Daily Weather History Graph

Search for Another Location

Airport or City:

Trip Planner

Search our weather history database for the weather conditions in past years. The results will help you decide how hot, cold, wet, or windy it might be!

Date:

Astronomy

Aug. 20, 2014 Rise Set
Actual Time 5:58 AM EDT 7:47 PM EDT
Civil Twilight 5:27 AM EDT 8:18 PM EDT
Nautical Twilight 4:49 AM EDT 8:56 PM EDT
Astronomical Twilight 4:08 AM EDT 9:37 PM EDT
Moon 1:32 AM EDT (8/20) 4:34 PM EDT (8/20)
Length of Visible Light 14h 50m
Length of Day
13h 48m
Waning Crescent, 21% of the Moon is Illuminated
Aug 20
Waning Crescent
Aug 25
New
Sep 2
First Quarter
Sep 8
Full
Sep 15
Last Quarter

Hourly Weather History & Observations

Time (EDT) Temp. Heat Index Dew Point Humidity Pressure Visibility Wind Dir Wind Speed Gust Speed Precip Events Conditions
12:54 AM 50.0 °F - 48.0 °F 93% 30.01 in 10.0 mi Calm Calm - N/A   Clear
1:15 AM 50.0 °F - 48.0 °F 93% 30.00 in 5.0 mi Calm Calm - N/A   Scattered Clouds
1:20 AM 51.1 °F - 48.0 °F 89% 30.00 in 2.5 mi Calm Calm - N/A   Mostly Cloudy
1:25 AM 50.0 °F - 48.0 °F 93% 30.00 in 1.0 mi Calm Calm - N/A   Mist
1:32 AM 50.0 °F - 48.0 °F 93% 30.00 in 0.5 mi Calm Calm - N/A Fog Fog
1:50 AM 50.0 °F - 48.2 °F 94% 30.00 in 1.2 mi Calm Calm - N/A   Overcast
1:54 AM 48.9 °F - 48.0 °F 97% 30.01 in 1.5 mi Calm Calm - N/A   Overcast
2:01 AM 50.0 °F - 48.0 °F 93% 30.00 in 0.8 mi SSW 3.5 mph - N/A   Mist
2:08 AM 50.0 °F - 48.0 °F 93% 30.00 in 1.2 mi Calm Calm - N/A   Overcast
2:13 AM 50.0 °F - 48.0 °F 93% 30.00 in 3.0 mi Calm Calm - N/A   Overcast
2:18 AM 50.0 °F - 48.0 °F 93% 30.00 in 1.8 mi Calm Calm - N/A   Overcast
2:22 AM 48.9 °F - 48.0 °F 97% 30.00 in 0.8 mi Calm Calm - N/A   Mist
2:49 AM 48.2 °F - 46.4 °F 93% 30.00 in 1.2 mi Calm Calm - N/A   Overcast
2:54 AM 48.0 °F - 46.9 °F 96% 30.01 in 1.5 mi Calm Calm - N/A   Overcast
2:59 AM 48.9 °F - 46.9 °F 93% 30.01 in 3.0 mi Calm Calm - N/A   Overcast
3:09 AM 48.9 °F - 46.9 °F 93% 30.01 in 1.8 mi Calm Calm - N/A   Overcast
3:13 AM 48.9 °F - 46.9 °F 93% 30.01 in 0.8 mi Calm Calm - N/A   Overcast
3:54 AM 50.0 °F - 48.0 °F 93% 30.01 in 0.2 mi Calm Calm - N/A Fog Fog
4:54 AM 48.0 °F - 46.9 °F 96% 30.02 in 0.8 mi South 3.5 mph - N/A   Mist
5:42 AM 48.0 °F - 46.9 °F 96% 30.03 in 1.2 mi Calm Calm - N/A   Overcast
5:49 AM 48.2 °F - 46.4 °F 93% 30.03 in 0.8 mi Calm Calm - N/A   Mist
5:54 AM 48.0 °F - 46.0 °F 93% 30.04 in 0.5 mi Calm Calm - N/A Fog Fog
6:54 AM 48.0 °F - 46.9 °F 96% 30.04 in 0.2 mi Calm Calm - N/A Fog Fog
7:54 AM 50.0 °F - 50.0 °F 100% 30.05 in 0.2 mi Calm Calm - N/A Fog Fog
8:37 AM 53.1 °F - 53.1 °F 100% 30.05 in 1.2 mi Calm Calm - N/A   Overcast
8:44 AM 55.0 °F - 55.0 °F 100% 30.04 in 3.0 mi Calm Calm - N/A   Overcast
8:54 AM 55.9 °F - 55.0 °F 97% 30.05 in 10.0 mi Calm Calm - N/A   Mostly Cloudy
9:03 AM 55.9 °F - 55.0 °F 97% 30.04 in 10.0 mi Calm Calm - N/A   Scattered Clouds
9:54 AM 64.9 °F - 57.0 °F 75% 30.05 in 10.0 mi Calm Calm - N/A   Clear
10:54 AM 72.0 °F - 57.9 °F 61% 30.04 in 10.0 mi Calm Calm - N/A   Clear
11:54 AM 73.9 °F - 57.9 °F 57% 30.03 in 10.0 mi Calm Calm - N/A   Clear
12:54 PM 78.1 °F - 59.0 °F 52% 30.03 in 10.0 mi South 3.5 mph - N/A   Clear
1:54 PM 78.1 °F - 57.0 °F 48% 30.02 in 10.0 mi Calm Calm - N/A   Clear
2:54 PM 81.0 °F 81.0 °F 57.0 °F 44% 30.01 in 10.0 mi Calm Calm - N/A   Clear
3:54 PM 78.1 °F - 59.0 °F 52% 30.01 in 10.0 mi SSE 5.8 mph - N/A   Partly Cloudy
4:54 PM 79.0 °F - 57.9 °F 48% 30.01 in 10.0 mi ESE 5.8 mph - N/A   Clear
5:54 PM 78.1 °F - 57.9 °F 50% 30.02 in 10.0 mi Variable 4.6 mph - N/A   Clear
6:54 PM 75.0 °F - 60.1 °F 60% 30.02 in 10.0 mi Calm Calm - N/A   Clear
7:54 PM 68.0 °F - 62.1 °F 81% 30.03 in 10.0 mi Calm Calm - N/A   Clear
8:54 PM 64.9 °F - 60.1 °F 84% 30.04 in 10.0 mi Calm Calm - N/A   Partly Cloudy
9:54 PM 62.1 °F - 59.0 °F 90% 30.05 in 10.0 mi Calm Calm - N/A   Clear
10:54 PM 60.1 °F - 57.9 °F 93% 30.06 in 10.0 mi Calm Calm - N/A   Clear
11:54 PM 59.0 °F - 57.0 °F 93% 30.07 in 10.0 mi Calm Calm - N/A   Clear